Вернуться в каталог

COSMOS 2338

АктивенВоенныеPO
NORAD 24726·PAYLOAD·🇷🇺 Russia

Запущен Feb 14, 1997 с Plesetsk Cosmodrome

Loading…

Ближайшие Пролёты (ближайшие 24 часа)

TLE

СвежийSource: Space-Track

Эпоха: Sep 14, 2026, 05:56 UTC

1 24726U 97006B   26257.24782389  .00000017  00000-0  37067-4 0  9993
2 24726  82.6014 207.0611 0003757 247.0724 112.9971 12.61394740361703

Отслеживайте COSMOS 2338 в реальном времени с AllMySat

Download on the App Store